[[{"header":{"parameterUnit":"m.s-1","parameterCategory":1,"la1":30.2991,"la2":30.254,"lo1":-89.0895,"lo2":-89.0444,"dy":0.0017,"dx":0.0017,"nx":28,"ny":28,"refTime":"2024-03-16T09:00:00:Z","depth":0,"parameterNumber":2,"parameterNumberName":"U-component_of_WINDS"},"data":[0,0,0,0,0,0,0,0,0,0,0,0,0,0,0,0,0,0,0,0,0,0,0,0,0,0,0,0,0,0,0,0,0,0,0,0,0,0,0,0,0,0,0,0,0,0,0,0,0,0,0,0,0,0,0,0,0,0,-3.4336,-3.4337,0,-3.4379,-3.438,-3.438,-3.4339,-3.4338,-3.4336,-3.4335,-3.4374,-3.4376,-3.4379,0,0,0,0,0,0,0,0,0,0,0,0,0,-3.4215,-3.4217,-3.4336,-3.4337,-3.4337,-3.4379,-3.438,-3.438,-3.434,-3.4338,-3.4336,-3.4334,-3.4373,-3.4376,-3.4379,0,0,0,0,0,0,0,0,0,0,0,0,0,-3.4263,-3.4218,-3.4336,-3.4322,-3.4321,-3.4379,-3.438,-3.438,-3.434,-3.4338,-3.4335,-3.4333,-3.4372,-3.4376,-3.4379,-3.4451,0,0,-3.4391,-3.4393,0,0,0,0,0,0,0,0,-3.4261,-3.4268,-3.4324,-3.4323,-3.4323,-3.4352,-3.4351,-3.4404,-3.4341,-3.4333,-3.4335,-3.4332,-3.4368,-3.4372,-3.4385,-3.4453,-3.4455,-3.4391,-3.4394,-3.4395,-3.4396,0,0,0,0,0,0,0,-3.4257,-3.4266,-3.4353,-3.4325,-3.4324,-3.4312,-3.4317,-3.4361,-3.4363,-3.4333,-3.4331,-3.4337,-3.4367,-3.4382,-3.4386,-3.4455,-3.4391,-3.4395,-3.4397,-3.4398,-3.4584,-3.4587,0,0,0,0,0,0,-3.4256,-3.4263,-3.4352,-3.4354,-3.4285,-3.4317,-3.4321,-3.4345,-3.4363,-3.4363,-3.4339,-3.4334,-3.4376,-3.4381,-3.4387,-3.4472,-3.4395,-3.4399,-3.4401,-3.4582,-3.4585,-3.4588,0,0,0,0,0,0,-3.4254,-3.4265,-3.435,-3.4308,-3.4318,-3.4321,-3.4348,-3.4347,-3.4361,-3.4367,-3.4366,-3.4353,-3.4375,-3.4382,-3.4436,-3.4473,-3.44,-3.4404,-3.4579,-3.4583,-3.4586,-3.4644,0,0,0,0,0,0,-3.425,-3.4264,-3.4292,-3.4309,-3.4321,-3.44,-3.435,-3.4349,-3.4368,-3.4364,-3.438,-3.4381,-3.4373,-3.4431,-3.444,-3.4477,-3.4407,-3.4575,-3.4581,-3.4585,-3.4638,-3.4649,-3.4658,0,0,0,0,0,-3.4246,-3.4305,-3.4294,-3.4305,-3.4356,-3.4402,-3.4408,-3.44,-3.4372,-3.4399,-3.4403,-3.438,-3.4468,-3.4436,-3.4446,-3.4485,-3.4573,-3.4579,-3.4585,-3.4634,-3.4647,-3.4658,0,0,0,0,0,0,-3.429,-3.4307,-3.4295,-3.4361,-3.4381,-3.4395,-3.443,-3.4414,-3.444,-3.4434,-3.4421,-3.4425,-3.4483,-3.449,-3.4454,-3.4556,-3.4516,-3.4524,-3.455,-3.4562,-3.4572,-3.4568,-3.441,0,0,0,0,0,-3.4308,-3.4345,-3.4357,-3.4415,-3.4426,-3.4426,-3.4446,-3.4438,-3.4457,-3.4464,-3.4472,-3.449,-3.4521,-3.4542,-3.4571,-3.464,-3.4642,-3.4671,-3.4681,-3.469,-3.4696,-3.4733,-3.4746,-3.4608,-3.4608,-3.4607,0,0,-3.4344,-3.4358,-3.4382,-3.4424,-3.4438,-3.4476,-3.4433,-3.4474,-3.4502,-3.447,-3.4522,-3.4529,-3.4547,-3.4609,-3.4637,-3.4617,-3.4736,-3.4697,-3.4704,-3.4706,-3.474,-3.4754,-3.4765,-3.4612,-3.4611,-3.461,0,0,-3.443,-3.4445,-3.4494,-3.451,-3.4533,-3.4533,-3.4545,-3.4563,-3.4566,-3.4619,-3.4596,-3.4628,-3.4682,-3.4697,-3.4712,-3.4805,-3.4784,-3.4814,-3.4866,-3.4901,-3.4912,-3.4922,-3.4954,-3.4966,-3.4822,-3.4822,-3.4822,0,-3.4471,-3.4529,-3.4521,-3.4565,-3.4584,-3.4559,-3.4609,-3.4624,-3.4654,-3.4667,-3.4645,-3.4714,-3.4725,-3.479,-3.4813,-3.4826,-3.4838,-3.4812,-3.4912,-3.4921,-3.493,-3.4961,-3.4973,-3.4825,-3.4825,-3.4824,-3.4824,0,-3.4579,-3.4619,-3.4656,-3.4689,-3.4712,-3.4758,-3.4756,-3.4781,-3.4771,-3.4774,-3.4827,-3.484,-3.4872,-3.4887,-3.4877,-3.4951,-3.4938,-3.4914,-3.4873,-3.4947,-3.4976,-3.4987,-3.483,-3.4829,-3.4828,-3.4827,0,0,-3.4691,-3.4721,-3.4734,-3.4749,-3.4773,-3.4803,-3.4848,-3.4882,-3.4902,-3.4924,-3.4961,-3.5009,-3.4988,-3.5004,-3.4996,-3.5028,-3.51,-3.5,-3.5,-3.5018,-3.5182,-3.5199,-3.5213,-3.5088,-3.509,-3.5092,-3.518,0,-3.4777,-3.4857,-3.4853,-3.4927,-3.4964,-3.4942,-3.4981,-3.4999,-3.5003,-3.5034,-3.5037,-3.5071,-3.5041,-3.5051,-3.5081,-3.5085,-3.5133,-3.5079,-3.512,-3.5122,-3.5115,-3.5228,-3.5246,-3.5328,-3.5191,-3.5193,-3.5194,0,-3.4887,-3.4916,-3.4995,-3.5015,-3.503,-3.5065,-3.5096,-3.5126,-3.5146,-3.5146,-3.5166,-3.5153,-3.5198,-3.5157,-3.5217,-3.5181,-3.5198,-3.5202,-3.5205,-3.5208,-3.5162,-3.5233,-3.5354,-3.5367,-3.5212,-3.5211,-3.5209,0,-3.4961,-3.5019,-3.5074,-3.5087,-3.5112,-3.5137,-3.5148,-3.5166,-3.5187,-3.5213,-3.5226,-3.5256,-3.5272,-3.5296,-3.5291,-3.5262,-3.5353,-3.5311,-3.5353,-3.5353,-3.5372,-3.5371,-3.5497,-3.5385,-3.5385,-3.5384,-3.5384,0,-3.5056,-3.5105,-3.5107,-3.5141,-3.5195,-3.5189,-3.5242,-3.525,-3.5267,-3.5301,-3.5283,-3.5315,-3.5308,-3.5339,-3.5335,-3.5386,-3.5393,-3.5394,-3.5392,-3.5395,-3.5395,-3.5405,-3.5399,-3.5388,-3.5387,-3.5386,-3.5386,0,-3.5147,-3.515,-3.5209,-3.5228,-3.5234,-3.5273,-3.5289,-3.532,-3.5323,-3.5367,-3.5376,-3.5381,-3.5417,-3.5415,-3.5455,-3.5453,-3.5515,-3.5507,-3.5508,-3.5506,-3.5548,-3.5544,-3.5685,-3.5703,-3.5579,-3.5581,-3.5582,0,-3.5207,-3.5245,-3.5269,-3.5292,-3.5305,-3.5341,-3.5363,-3.5358,-3.5381,-3.5408,-3.5436,-3.5471,-3.5499,-3.5557,-3.5563,-3.5594,-3.5586,-3.5633,-3.559,-3.5592,-3.5585,-3.5583,-3.5586,-3.5641,-3.5642,-3.5643,-3.5644,0,-3.5314,-3.5314,-3.5347,-3.5381,-3.5407,-3.5433,-3.5457,-3.5476,-3.5474,-3.55,-3.5538,-3.556,-3.5602,-3.5637,-3.5667,-3.5676,-3.566,-3.5658,-3.5669,-3.5672,-3.5671,-3.5672,-3.553,-3.5655,-3.5654,-3.5653,-3.5652,-3.5652,-3.539,-3.5423,-3.5446,-3.5483,-3.5501,-3.5524,-3.5554,-3.5562,-3.5595,-3.563,-3.5625,-3.5667,-3.5687,-3.5726,-3.5739,-3.5771,-3.5753,-3.577,-3.5774,-3.5777,-3.5782,-3.5668,-3.5776,-3.5776,-3.5775,-3.5775,-3.5775,0,-3.5495,-3.5509,-3.5544,-3.5579,-3.5608,-3.5593,-3.5618,-3.5643,-3.5681,-3.5702,-3.573,-3.5774,-3.5808,-3.5817,-3.585,-3.5873,-3.5867,-3.5882,-3.5879,-3.5882,-3.5796,-3.5783,-3.5887,-3.5887,-3.5887,-3.5887,-3.5887,-3.5887,-3.5553,-3.5608,-3.5611,-3.5674,-3.5687,-3.573,-3.5746,-3.5767,-3.5784,-3.5834,-3.5863,-3.5869,-3.5885,-3.5919,-3.5949,-3.5951,-3.5963,-3.5981,-3.598,-3.5899,-3.5888,-3.5877,-3.5865,-3.5984,-3.5985,-3.6063,-3.6064,-3.6065]},{"header":{"parameterUnit":"m.s-1","parameterCategory":1,"la1":30.2991,"la2":30.254,"lo1":-89.0895,"lo2":-89.0444,"dy":0.0017,"dx":0.0017,"nx":28,"ny":28,"refTime":"2024-03-16T09:00:00:Z","depth":0,"parameterNumber":3,"parameterNumberName":"V-component_of_WINDS"},"data":[0,0,0,0,0,0,0,0,0,0,0,0,0,0,0,0,0,0,0,0,0,0,0,0,0,0,0,0,0,0,0,0,0,0,0,0,0,0,0,0,0,0,0,0,0,0,0,0,0,0,0,0,0,0,0,0,0,0,2.1307,2.1307,0,2.1283,2.1283,2.1283,2.1282,2.1283,2.1283,2.1283,2.1254,2.1253,2.1252,0,0,0,0,0,0,0,0,0,0,0,0,0,2.135,2.135,2.1307,2.1307,2.1307,2.1283,2.1283,2.1283,2.1282,2.1283,2.1283,2.1283,2.1255,2.1254,2.1252,0,0,0,0,0,0,0,0,0,0,0,0,0,2.1329,2.1349,2.1307,2.1304,2.1303,2.1283,2.1283,2.1282,2.1282,2.1283,2.1283,2.1283,2.1255,2.1254,2.1252,2.1233,0,0,2.1247,2.1247,0,0,0,0,0,0,0,0,2.1331,2.1328,2.1305,2.1304,2.1303,2.1286,2.1288,2.1266,2.1282,2.129,2.1283,2.1284,2.1264,2.1262,2.1256,2.1232,2.123,2.1247,2.1246,2.1245,2.1245,0,0,0,0,0,0,0,2.1332,2.1329,2.1298,2.1304,2.1303,2.1303,2.13,2.1283,2.1275,2.1289,2.1289,2.1287,2.1264,2.1258,2.1256,2.123,2.1247,2.1246,2.1245,2.1244,2.119,2.1189,0,0,0,0,0,0,2.1335,2.133,2.1298,2.1297,2.1319,2.1301,2.1299,2.1291,2.1275,2.1273,2.1286,2.1287,2.126,2.1258,2.1255,2.1232,2.1246,2.1244,2.1243,2.119,2.119,2.1189,0,0,0,0,0,0,2.1336,2.1332,2.1299,2.1313,2.1309,2.13,2.1292,2.129,2.1284,2.1273,2.1271,2.1282,2.1261,2.1257,2.1239,2.1231,2.1243,2.1242,2.1191,2.119,2.1189,2.1186,0,0,0,0,0,0,2.1337,2.1332,2.1325,2.1313,2.1309,2.1285,2.1291,2.129,2.1282,2.1282,2.1268,2.1266,2.1261,2.1241,2.1237,2.1229,2.1241,2.1191,2.119,2.119,2.1187,2.1185,2.1184,0,0,0,0,0,2.1338,2.1324,2.1325,2.1321,2.13,2.1284,2.1281,2.1277,2.1281,2.1274,2.1267,2.1266,2.1233,2.124,2.1235,2.1226,2.1192,2.1191,2.119,2.1187,2.1185,2.1184,0,0,0,0,0,0,2.1333,2.1322,2.1323,2.1305,2.1296,2.1284,2.1274,2.1275,2.1263,2.1264,2.1258,2.1254,2.1237,2.1229,2.1237,2.1207,2.1213,2.1211,2.1212,2.1211,2.1209,2.1211,2.1239,0,0,0,0,0,2.133,2.1319,2.131,2.1295,2.129,2.1283,2.1276,2.1274,2.1264,2.1259,2.1251,2.124,2.1227,2.1219,2.1206,2.1186,2.1183,2.1178,2.1176,2.1175,2.1173,2.1163,2.1161,2.1185,2.1185,2.1185,0,0,2.1323,2.1316,2.1309,2.1293,2.1286,2.1274,2.128,2.1267,2.1258,2.1257,2.124,2.1234,2.1221,2.1203,2.1194,2.1196,2.1166,2.1174,2.1173,2.1172,2.1162,2.116,2.1157,2.1185,2.1185,2.1185,0,0,2.1304,2.1298,2.1285,2.1278,2.1268,2.1264,2.1261,2.125,2.1246,2.123,2.1229,2.1218,2.1196,2.1187,2.118,2.1161,2.116,2.1157,2.1149,2.1139,2.1138,2.1136,2.1129,2.1127,2.1155,2.1155,2.1155,0,2.1296,2.128,2.1278,2.1265,2.1259,2.126,2.1246,2.1239,2.1225,2.122,2.1223,2.1197,2.1188,2.1168,2.1164,2.1158,2.1154,2.1158,2.1138,2.1136,2.1135,2.1128,2.1126,2.1155,2.1155,2.1155,2.1155,0,2.1271,2.1259,2.125,2.1238,2.1231,2.1218,2.1213,2.1206,2.1205,2.12,2.1184,2.1174,2.1161,2.1156,2.1154,2.1136,2.1138,2.114,2.1145,2.1132,2.1126,2.1124,2.1155,2.1155,2.1155,2.1155,0,0,2.1246,2.1235,2.1232,2.1227,2.1217,2.1208,2.1195,2.1184,2.1177,2.1168,2.1157,2.114,2.1142,2.1134,2.1131,2.1123,2.1109,2.1126,2.1126,2.1123,2.109,2.1088,2.1085,2.1109,2.1109,2.1108,2.1091,0,2.1226,2.1205,2.1204,2.1185,2.1175,2.1177,2.1166,2.1158,2.1154,2.1144,2.1139,2.1127,2.1132,2.1127,2.1119,2.1113,2.1102,2.1114,2.1099,2.1098,2.1101,2.1082,2.1079,2.1063,2.1088,2.1088,2.1088,0,2.12,2.1192,2.1172,2.1165,2.1161,2.1151,2.1141,2.1132,2.1124,2.1121,2.1114,2.1113,2.11,2.1107,2.1089,2.1097,2.1091,2.1087,2.1086,2.1084,2.1092,2.1079,2.1058,2.1055,2.1084,2.1084,2.1084,0,2.1184,2.1168,2.1155,2.1151,2.1142,2.1135,2.1131,2.1124,2.1117,2.1108,2.1104,2.1093,2.1087,2.1079,2.1075,2.108,2.1057,2.1063,2.1055,2.1055,2.1049,2.1049,2.1026,2.1046,2.1046,2.1046,2.1046,0,2.1162,2.115,2.1148,2.1139,2.1126,2.1125,2.1112,2.1108,2.1102,2.1092,2.1093,2.1084,2.108,2.107,2.1067,2.1053,2.105,2.1048,2.1047,2.1047,2.1048,2.1042,2.1043,2.1045,2.1045,2.1045,2.1045,0,2.1141,2.114,2.1125,2.1119,2.1118,2.1108,2.1102,2.1094,2.1092,2.108,2.1077,2.1072,2.1061,2.1057,2.1043,2.1041,2.1025,2.1025,2.1028,2.1027,2.1019,2.102,2.0991,2.0988,2.101,2.101,2.101,0,2.1127,2.1118,2.1112,2.1106,2.1103,2.1094,2.1088,2.1087,2.1081,2.1072,2.1065,2.1054,2.1046,2.1028,2.1022,2.1012,2.1012,2.1003,2.101,2.1011,2.1012,2.1012,2.1012,2.1001,2.1001,2.1001,2.1,0,2.1102,2.1102,2.1094,2.1086,2.108,2.1074,2.1067,2.1063,2.1061,2.1054,2.1043,2.1037,2.1024,2.1014,2.1003,2.0998,2.0999,2.0999,2.0996,2.0996,2.0998,2.0997,2.1024,2.0999,2.0999,2.0999,2.0999,2.0999,2.1083,2.1076,2.1071,2.1063,2.1059,2.1054,2.1046,2.1043,2.1035,2.1026,2.1025,2.1014,2.1008,2.0994,2.0989,2.098,2.0983,2.0979,2.0978,2.0977,2.0976,2.1,2.0978,2.0978,2.0978,2.0979,2.0979,0,2.1058,2.1056,2.1049,2.1041,2.1035,2.1038,2.1032,2.1026,2.1016,2.1011,2.1003,2.0992,2.0982,2.0977,2.0968,2.0962,2.0962,2.0959,2.0959,2.0958,2.0974,2.0978,2.0959,2.0959,2.0959,2.0959,2.0959,2.0959,2.1045,2.1033,2.1033,2.1019,2.1016,2.1007,2.1003,2.0998,2.0994,2.0982,2.0975,2.0972,2.0967,2.0957,2.0949,2.0948,2.0944,2.0941,2.094,2.0955,2.0957,2.0959,2.0962,2.094,2.094,2.0924,2.0924,2.0924]}]]